QPF
0.00 0.00 0.00 0.00 0.00 0.00 0.00 0.00 0.00 0.00 0.00 0.01 0.00 0.00 0.01 0.00 0.01 0.01 0.01 0.02 0.03 0.03 0.04 0.04 0.03 0.03 0.03 0.03 0.04 0.06 0.08 0.10 0.12 0.14 0.17 0.19 0.19 0.20 0.21 0.25 0.30 0.27 0.22 0.21
0.00 0.00 0.00 0.00 0.00 0.00 0.00 0.00 0.00 0.01 0.01 0.01 0.00 0.00 0.00 0.00 0.00 0.00 0.01 0.01 0.01 0.01 0.01 0.01 0.01 0.01 0.01 0.01 0.02 0.02 0.03 0.04 0.07 0.10 0.13 0.15 0.22 0.23 0.23 0.29 0.31 0.28 0.27 0.26
0.00 0.00 0.00 0.00 0.00 0.00 0.00 0.00 0.00 0.00 0.01 0.01 0.01 0.01 0.01 0.01 0.01 0.01 0.01 0.01 0.02 0.01 0.01 0.01 0.01 0.00 0.00 0.00 0.00 0.01 0.01 0.01 0.02 0.05 0.08 0.12 0.16 0.19 0.19 0.20 0.23 0.29 0.33 0.35
0.00 0.00 0.00 0.00 0.00 0.00 0.00 0.00 0.00 0.00 0.00 0.01 0.01 0.01 0.01 0.02 0.02 0.02 0.02 0.03 0.02 0.02 0.02 0.02 0.01 0.01 0.01 0.00 0.00 0.00 0.00 0.00 0.01 0.01 0.03 0.07 0.10 0.11 0.14 0.18 0.25 0.33 0.39 0.40
0.00 0.00 0.00 0.00 0.00 0.00 0.00 0.00 0.00 0.00 0.00 0.00 0.01 0.01 0.02 0.02 0.02 0.02 0.03 0.03 0.02 0.02 0.02 0.03 0.02 0.02 0.01 0.01 0.01 0.01 0.01 0.01 0.01 0.01 0.02 0.04 0.08 0.10 0.13 0.15 0.18 0.23 0.27 0.31
0.00 0.00 0.00 0.00 0.00 0.00 0.00 0.00 0.00 0.00 0.00 0.00 0.00 0.01 0.02 0.02 0.02 0.02 0.02 0.02 0.02 0.01 0.02 0.04 0.03 0.02 0.01 0.01 0.02 0.02 0.01 0.01 0.02 0.01 0.01 0.02 0.05 0.07 0.08 0.10 0.12 0.14 0.18 0.22
0.00 0.00 0.00 0.00 0.00 0.00 0.00 0.00 0.00 0.00 0.00 0.00 0.00 0.01 0.01 0.01 0.01 0.01 0.01 0.02 0.01 0.02 0.03 0.05 0.05 0.03 0.02 0.01 0.02 0.03 0.03 0.02 0.02 0.01 0.02 0.02 0.04 0.07 0.08 0.10 0.11 0.13 0.15 0.16
0.00 0.00 0.00 0.00 0.00 0.00 0.00 0.00 0.00 0.00 0.00 0.00 0.02 0.02 0.01 0.01 0.01 0.01 0.02 0.02 0.02 0.03 0.05 0.07 0.06 0.05 0.04 0.03 0.04 0.06 0.06 0.04 0.03 0.02 0.02 0.03 0.05 0.07 0.08 0.10 0.10 0.11 0.11 0.12
0.00 0.00 0.00 0.00 0.00 0.00 0.00 0.00 0.00 0.00 0.00 0.00 0.01 0.02 0.02 0.01 0.01 0.02 0.03 0.03 0.03 0.04 0.05 0.07 0.08 0.09 0.08 0.07 0.08 0.09 0.09 0.08 0.05 0.04 0.04 0.04 0.05 0.06 0.06 0.08 0.08 0.08 0.08 0.10
0.00 0.00 0.00 0.00 0.00 0.00 0.00 0.00 0.00 0.00 0.00 0.00 0.01 0.02 0.03 0.02 0.02 0.02 0.03 0.04 0.07 0.07 0.06 0.07 0.07 0.09 0.08 0.08 0.09 0.09 0.09 0.08 0.06 0.05 0.05 0.05 0.05 0.06 0.07 0.08 0.08 0.07 0.07 0.08
0.00 0.00 0.00 0.00 0.00 0.00 0.00 0.00 0.00 0.00 0.01 0.02 0.01 0.01 0.01 0.02 0.02 0.03 0.04 0.05 0.06 0.07 0.07 0.08 0.08 0.08 0.07 0.07 0.07 0.10 0.11 0.09 0.07 0.06 0.06 0.06 0.06 0.07 0.07 0.06 0.06 0.05 0.06 0.09
0.00 0.00 0.00 0.00 0.00 0.00 0.00 0.00 0.00 0.00 0.00 0.00 0.00 0.01 0.01 0.01 0.02 0.02 0.03 0.03 0.04 0.05 0.05 0.06 0.05 0.05 0.05 0.06 0.06 0.08 0.09 0.09 0.08 0.08 0.08 0.08 0.07 0.07 0.06 0.06 0.06 0.06 0.08 0.08
0.00 0.00 0.00 0.00 0.00 0.00 0.00 0.00 0.00 0.00 0.00 0.00 0.00 0.00 0.01 0.01 0.02 0.02 0.02 0.01 0.01 0.01 0.02 0.02 0.02 0.02 0.02 0.03 0.05 0.07 0.06 0.07 0.07 0.07 0.08 0.07 0.07 0.07 0.07 0.06 0.06 0.05 0.07 0.07
0.00 0.00 0.00 0.00 0.00 0.00 0.00 0.00 0.00 0.00 0.00 0.00 0.01 0.02 0.03 0.01 0.01 0.01 0.01 0.00 0.00 0.00 0.00 0.01 0.01 0.01 0.01 0.01 0.02 0.04 0.03 0.05 0.05 0.05 0.04 0.05 0.07 0.07 0.07 0.06 0.05 0.05 0.05 0.05
0.00 0.00 0.00 0.00 0.00 0.00 0.00 0.00 0.00 0.00 0.00 0.00 0.00 0.01 0.01 0.00 0.00 0.00 0.00 0.00 0.00 0.00 0.00 0.00 0.00 0.00 0.00 0.00 0.00 0.01 0.01 0.02 0.03 0.04 0.03 0.03 0.04 0.04 0.05 0.04 0.03 0.04 0.04 0.04
0.00 0.00 0.00 0.00 0.00 0.00 0.00 0.00 0.00 0.00 0.00 0.00 0.00 0.00 0.00 0.00 0.00 0.00 0.00 0.00 0.00 0.00 0.00 0.00 0.00 0.00 0.00 0.00 0.00 0.00 0.00 0.00 0.01 0.01 0.01 0.01 0.01 0.02 0.02 0.01 0.01 0.02 0.02 0.02
0.00 0.00 0.00 0.00 0.00 0.00 0.00 0.00 0.00 0.00 0.00 0.00 0.00 0.00 0.00 0.00 0.00 0.00 0.00 0.00 0.00 0.00 0.00 0.00 0.00 0.00 0.00 0.00 0.00 0.00 0.00 0.00 0.00 0.00 0.01 0.01 0.01 0.00 0.01 0.01 0.01 0.01 0.01 0.01
0.00 0.00 0.00 0.00 0.00 0.00 0.00 0.00 0.00 0.00 0.00 0.00 0.00 0.00 0.00 0.00 0.00 0.00 0.00 0.00 0.00 0.00 0.00 0.00 0.00 0.00 0.00 0.00 0.00 0.00 0.00 0.00 0.00 0.00 0.00 0.00 0.00 0.01 0.01 0.01 0.01 0.00 0.00 0.01
0.00 0.00 0.00 0.00 0.00 0.00 0.00 0.00 0.00 0.00 0.00 0.00 0.00 0.00 0.00 0.00 0.00 0.00 0.00 0.00 0.00 0.00 0.00 0.00 0.00 0.00 0.00 0.00 0.00 0.00 0.00 0.00 0.00 0.00 0.00 0.00 0.00 0.00 0.00 0.00 0.00 0.01 0.01 0.01
0.00 0.00 0.00 0.00 0.00 0.00 0.00 0.00 0.00 0.00 0.00 0.00 0.00 0.00 0.00 0.00 0.00 0.00 0.00 0.00 0.00 0.00 0.00 0.00 0.00 0.00 0.00 0.00 0.00 0.00 0.00 0.00 0.00 0.00 0.00 0.00 0.00 0.00 0.00 0.00 0.00 0.01 0.01 0.00
0.00 0.00 0.00 0.00 0.00 0.00 0.00 0.00 0.00 0.00 0.00 0.00 0.00 0.00 0.00 0.00 0.00 0.00 0.00 0.00 0.00 0.00 0.00 0.00 0.00 0.00 0.00 0.00 0.00 0.00 0.00 0.00 0.00 0.00 0.00 0.00 0.00 0.00 0.00 0.00 0.00 0.00 0.00 0.00
0.00 0.00 0.00 0.00 0.00 0.00 0.00 0.00 0.00 0.00 0.00 0.00 0.00 0.00 0.00 0.00 0.00 0.00 0.00 0.00 0.00 0.00 0.00 0.00 0.00 0.00 0.00 0.00 0.00 0.00 0.00 0.00 0.00 0.00 0.00 0.00 0.00 0.00 0.00 0.00 0.00 0.00 0.00 0.00
0.00 0.00 0.00 0.00 0.00 0.00 0.00 0.00 0.00 0.00 0.00 0.00 0.00 0.00 0.00 0.00 0.00 0.00 0.00 0.00 0.00 0.00 0.00 0.00 0.00 0.00 0.00 0.00 0.00 0.00 0.00 0.00 0.00 0.00 0.00 0.00 0.00 0.00 0.00 0.00 0.00 0.00 0.00 0.00
0.00 0.00 0.00 0.00 0.00 0.00 0.00 0.00 0.00 0.00 0.00 0.00 0.00 0.00 0.00 0.00 0.00 0.00 0.00 0.00 0.00 0.00 0.00 0.00 0.00 0.00 0.00 0.00 0.00 0.00 0.00 0.00 0.00 0.00 0.00 0.00 0.00 0.00 0.00 0.00 0.00 0.00 0.00 0.00
0.00 0.00 0.00 0.00 0.00 0.00 0.00 0.00 0.00 0.00 0.00 0.00 0.00 0.00 0.00 0.00 0.00 0.00 0.00 0.00 0.00 0.00 0.00 0.00 0.00 0.00 0.00 0.00 0.00 0.00 0.00 0.00 0.00 0.00 0.00 0.00 0.00 0.00 0.00 0.00 0.00 0.00 0.00 0.00
0.00 0.00 0.00 0.00 0.00 0.00 0.00 0.00 0.00 0.00 0.00 0.00 0.00 0.00 0.00 0.00 0.00 0.00 0.00 0.00 0.00 0.00 0.00 0.00 0.00 0.00 0.00 0.00 0.00 0.00 0.00 0.00 0.00 0.00 0.00 0.00 0.00 0.00 0.00 0.00 0.00 0.00 0.00 0.00
MSLP
1016.16 1017.22 1018.02 1018.56 1018.92 1019.21 1019.56 1020.07 1020.80 1021.72 1022.75 1023.78 1024.66 1025.27 1025.53 1025.40 1024.95 1024.25 1023.42 1022.59 1021.82 1021.19 1020.68 1020.28 1019.90 1019.49 1019.01 1018.44 1017.78 1017.06 1016.34 1015.67 1015.08 1014.58 1014.16 1013.80 1013.47 1013.15 1012.84 1012.53 1012.26 1012.07 1012.00 1012.06
1017.60 1018.58 1019.26 1019.68 1019.93 1020.13 1020.41 1020.88 1021.57 1022.47 1023.47 1024.47 1025.31 1025.88 1026.10 1025.95 1025.47 1024.77 1023.95 1023.12 1022.36 1021.73 1021.21 1020.77 1020.35 1019.89 1019.36 1018.72 1018.01 1017.26 1016.52 1015.82 1015.21 1014.69 1014.23 1013.82 1013.42 1013.01 1012.59 1012.17 1011.80 1011.53 1011.40 1011.43
1018.88 1019.72 1020.26 1020.56 1020.71 1020.84 1021.08 1021.53 1022.21 1023.09 1024.08 1025.04 1025.84 1026.37 1026.55 1026.36 1025.86 1025.15 1024.33 1023.50 1022.75 1022.10 1021.56 1021.08 1020.61 1020.09 1019.51 1018.83 1018.09 1017.33 1016.58 1015.90 1015.29 1014.76 1014.28 1013.82 1013.36 1012.86 1012.35 1011.84 1011.38 1011.03 1010.84 1010.85
1019.94 1020.60 1020.99 1021.17 1021.25 1021.36 1021.60 1022.07 1022.77 1023.66 1024.63 1025.56 1026.32 1026.78 1026.91 1026.67 1026.15 1025.41 1024.58 1023.74 1022.97 1022.30 1021.72 1021.19 1020.67 1020.11 1019.48 1018.78 1018.04 1017.28 1016.55 1015.89 1015.30 1014.77 1014.27 1013.78 1013.27 1012.70 1012.12 1011.53 1011.00 1010.60 1010.37 1010.36
1020.78 1021.25 1021.49 1021.58 1021.63 1021.75 1022.05 1022.57 1023.32 1024.23 1025.20 1026.09 1026.78 1027.18 1027.23 1026.93 1026.35 1025.57 1024.71 1023.85 1023.05 1022.34 1021.72 1021.15 1020.59 1019.99 1019.34 1018.63 1017.89 1017.16 1016.46 1015.82 1015.24 1014.72 1014.22 1013.70 1013.14 1012.54 1011.90 1011.27 1010.70 1010.27 1010.02 1010.00
1021.43 1021.72 1021.84 1021.88 1021.93 1022.11 1022.49 1023.10 1023.92 1024.86 1025.81 1026.66 1027.27 1027.57 1027.53 1027.14 1026.49 1025.66 1024.76 1023.86 1023.03 1022.29 1021.63 1021.03 1020.43 1019.81 1019.15 1018.45 1017.73 1017.02 1016.34 1015.73 1015.17 1014.65 1014.13 1013.60 1013.01 1012.38 1011.72 1011.08 1010.51 1010.08 1009.84 1009.82
1021.94 1022.08 1022.11 1022.13 1022.24 1022.51 1023.00 1023.71 1024.59 1025.55 1026.48 1027.26 1027.77 1027.96 1027.80 1027.31 1026.58 1025.69 1024.74 1023.81 1022.95 1022.19 1021.51 1020.89 1020.28 1019.66 1019.00 1018.32 1017.62 1016.93 1016.28 1015.67 1015.12 1014.59 1014.06 1013.51 1012.91 1012.28 1011.63 1011.01 1010.47 1010.06 1009.84 1009.83
1022.33 1022.36 1022.36 1022.42 1022.61 1022.99 1023.59 1024.39 1025.32 1026.29 1027.17 1027.85 1028.25 1028.31 1028.02 1027.43 1026.62 1025.67 1024.69 1023.74 1022.87 1022.11 1021.43 1020.81 1020.21 1019.60 1018.96 1018.30 1017.63 1016.96 1016.32 1015.71 1015.14 1014.60 1014.05 1013.49 1012.89 1012.28 1011.66 1011.08 1010.58 1010.22 1010.04 1010.04
1022.62 1022.61 1022.63 1022.75 1023.04 1023.54 1024.24 1025.11 1026.07 1027.00 1027.80 1028.37 1028.64 1028.57 1028.16 1027.48 1026.60 1025.62 1024.62 1023.68 1022.82 1022.08 1021.42 1020.83 1020.26 1019.68 1019.08 1018.45 1017.79 1017.14 1016.51 1015.89 1015.30 1014.73 1014.17 1013.59 1013.01 1012.41 1011.84 1011.31 1010.88 1010.57 1010.41 1010.43
1022.80 1022.82 1022.90 1023.12 1023.53 1024.12 1024.90 1025.80 1026.74 1027.60 1028.30 1028.74 1028.87 1028.68 1028.18 1027.43 1026.51 1025.53 1024.55 1023.64 1022.83 1022.12 1021.51 1020.96 1020.44 1019.90 1019.34 1018.75 1018.13 1017.49 1016.86 1016.23 1015.62 1015.03 1014.44 1013.85 1013.28 1012.71 1012.18 1011.71 1011.33 1011.07 1010.93 1010.94
1022.87 1022.97 1023.16 1023.50 1024.00 1024.67 1025.48 1026.37 1027.24 1028.01 1028.57 1028.88 1028.89 1028.59 1028.03 1027.25 1026.35 1025.40 1024.47 1023.62 1022.88 1022.24 1021.69 1021.19 1020.72 1020.24 1019.72 1019.17 1018.59 1017.98 1017.35 1016.72 1016.10 1015.48 1014.88 1014.29 1013.72 1013.18 1012.68 1012.26 1011.92 1011.68 1011.55 1011.54
1022.87 1023.09 1023.40 1023.83 1024.42 1025.12 1025.92 1026.74 1027.51 1028.14 1028.57 1028.75 1028.65 1028.29 1027.70 1026.94 1026.09 1025.22 1024.38 1023.62 1022.95 1022.39 1021.90 1021.46 1021.04 1020.61 1020.16 1019.66 1019.12 1018.54 1017.94 1017.32 1016.69 1016.07 1015.46 1014.86 1014.30 1013.77 1013.31 1012.91 1012.59 1012.36 1012.22 1012.16
1022.84 1023.19 1023.61 1024.13 1024.74 1025.44 1026.17 1026.89 1027.52 1028.00 1028.29 1028.34 1028.17 1027.78 1027.21 1026.51 1025.75 1024.99 1024.26 1023.60 1023.02 1022.53 1022.10 1021.71 1021.34 1020.96 1020.56 1020.12 1019.63 1019.11 1018.55 1017.96 1017.35 1016.73 1016.13 1015.54 1014.98 1014.46 1014.01 1013.62 1013.31 1013.07 1012.89 1012.79
1022.88 1023.33 1023.83 1024.38 1024.99 1025.62 1026.24 1026.81 1027.27 1027.59 1027.74 1027.70 1027.48 1027.10 1026.59 1026.00 1025.36 1024.72 1024.12 1023.56 1023.07 1022.63 1022.25 1021.90 1021.56 1021.22 1020.87 1020.48 1020.06 1019.60 1019.10 1018.57 1018.00 1017.42 1016.83 1016.25 1015.70 1015.20 1014.75 1014.36 1014.04 1013.77 1013.56 1013.40
1023.04 1023.56 1024.09 1024.63 1025.17 1025.69 1026.15 1026.54 1026.82 1026.98 1027.00 1026.89 1026.66 1026.32 1025.90 1025.43 1024.93 1024.43 1023.95 1023.49 1023.07 1022.68 1022.32 1021.98 1021.66 1021.35 1021.04 1020.71 1020.36 1019.98 1019.56 1019.10 1018.60 1018.06 1017.51 1016.97 1016.43 1015.94 1015.49 1015.10 1014.76 1014.47 1014.23 1014.02
1023.40 1023.93 1024.43 1024.90 1025.32 1025.67 1025.95 1026.14 1026.24 1026.24 1026.16 1026.00 1025.78 1025.50 1025.19 1024.85 1024.50 1024.14 1023.77 1023.39 1023.02 1022.65 1022.30 1021.96 1021.65 1021.35 1021.07 1020.80 1020.53 1020.23 1019.90 1019.53 1019.11 1018.64 1018.15 1017.64 1017.14 1016.66 1016.22 1015.83 1015.49 1015.18 1014.92 1014.67
1023.93 1024.42 1024.84 1025.18 1025.44 1025.60 1025.67 1025.66 1025.58 1025.45 1025.28 1025.09 1024.90 1024.70 1024.51 1024.31 1024.09 1023.85 1023.58 1023.27 1022.93 1022.57 1022.21 1021.85 1021.53 1021.24 1020.99 1020.77 1020.56 1020.35 1020.12 1019.85 1019.52 1019.15 1018.73 1018.28 1017.82 1017.37 1016.95 1016.57 1016.22 1015.92 1015.64 1015.38
1024.55 1024.96 1025.26 1025.44 1025.51 1025.48 1025.35 1025.15 1024.91 1024.66 1024.43 1024.23 1024.08 1023.97 1023.89 1023.81 1023.72 1023.59 1023.39 1023.14 1022.82 1022.45 1022.07 1021.69 1021.35 1021.06 1020.83 1020.65 1020.51 1020.39 1020.25 1020.09 1019.86 1019.58 1019.25 1018.87 1018.47 1018.06 1017.68 1017.32 1016.99 1016.69 1016.42 1016.16
1025.13 1025.42 1025.57 1025.59 1025.48 1025.25 1024.95 1024.59 1024.23 1023.90 1023.63 1023.44 1023.34 1023.31 1023.33 1023.37 1023.38 1023.33 1023.21 1022.99 1022.68 1022.32 1021.91 1021.52 1021.16 1020.87 1020.65 1020.51 1020.43 1020.39 1020.34 1020.27 1020.15 1019.97 1019.72 1019.43 1019.10 1018.75 1018.41 1018.09 1017.79 1017.51 1017.25 1016.99
1025.50 1025.66 1025.67 1025.53 1025.26 1024.88 1024.44 1023.97 1023.53 1023.16 1022.88 1022.72 1022.67 1022.72 1022.83 1022.96 1023.06 1023.09 1023.01 1022.83 1022.54 1022.17 1021.77 1021.36 1021.00 1020.71 1020.51 1020.40 1020.37 1020.39 1020.43 1020.44 1020.42 1020.33 1020.18 1019.97 1019.71 1019.43 1019.15 1018.87 1018.60 1018.35 1018.11 1017.86
1025.52 1025.56 1025.44 1025.17 1024.79 1024.31 1023.78 1023.26 1022.79 1022.42 1022.16 1022.05 1022.06 1022.18 1022.37 1022.57 1022.74 1022.82 1022.80 1022.65 1022.39 1022.04 1021.65 1021.24 1020.89 1020.61 1020.43 1020.35 1020.36 1020.42 1020.52 1020.61 1020.66 1020.66 1020.60 1020.47 1020.30 1020.09 1019.86 1019.63 1019.41 1019.18 1018.96 1018.72
1025.11 1025.04 1024.82 1024.47 1024.02 1023.50 1022.96 1022.44 1022.00 1021.66 1021.46 1021.40 1021.48 1021.67 1021.91 1022.18 1022.40 1022.54 1022.56 1022.46 1022.23 1021.92 1021.55 1021.18 1020.84 1020.58 1020.42 1020.36 1020.39 1020.49 1020.63 1020.77 1020.89 1020.96 1020.97 1020.93 1020.83 1020.69 1020.53 1020.35 1020.16 1019.96 1019.75 1019.53
1024.28 1024.12 1023.83 1023.45 1022.99 1022.49 1021.99 1021.53 1021.16 1020.90 1020.77 1020.79 1020.93 1021.17 1021.47 1021.78 1022.04 1022.23 1022.30 1022.24 1022.07 1021.81 1021.49 1021.16 1020.86 1020.62 1020.48 1020.43 1020.47 1020.59 1020.75 1020.92 1021.08 1021.20 1021.28 1021.30 1021.27 1021.20 1021.10 1020.97 1020.82 1020.64 1020.45 1020.23
1023.10 1022.87 1022.56 1022.18 1021.76 1021.33 1020.92 1020.57 1020.30 1020.15 1020.12 1020.21 1020.42 1020.71 1021.05 1021.39 1021.69 1021.91 1022.02 1022.02 1021.91 1021.71 1021.46 1021.18 1020.92 1020.71 1020.58 1020.54 1020.57 1020.68 1020.84 1021.02 1021.20 1021.36 1021.48 1021.56 1021.60 1021.59 1021.55 1021.46 1021.35 1021.20 1021.02 1020.81
1021.72 1021.45 1021.13 1020.78 1020.44 1020.11 1019.83 1019.62 1019.49 1019.46 1019.54 1019.71 1019.98 1020.30 1020.67 1021.03 1021.35 1021.60 1021.76 1021.81 1021.77 1021.63 1021.44 1021.22 1021.01 1020.83 1020.70 1020.65 1020.67 1020.75 1020.89 1021.06 1021.24 1021.41 1021.57 1021.69 1021.78 1021.83 1021.84 1021.80 1021.72 1021.60 1021.45 1021.25
1020.31 1020.00 1019.69 1019.41 1019.16 1018.97 1018.83 1018.77 1018.79 1018.89 1019.06 1019.31 1019.63 1019.98 1020.36 1020.72 1021.06 1021.33 1021.52 1021.62 1021.63 1021.57 1021.44 1021.27 1021.10 1020.94 1020.82 1020.75 1020.73 1020.78 1020.87 1021.01 1021.17 1021.35 1021.52 1021.68 1021.81 1021.91 1021.97 1021.98 1021.94 1021.85 1021.72 1021.56
Thickness
5761 5745 5728 5733 5739 5738 5730 5717 5706 5702 5702 5690 5679 5672 5673 5677 5677 5677 5677 5678 5679 5681 5687 5691 5695 5699 5701 5705 5708 5712 5716 5721 5726 5731 5735 5739 5743 5747 5750 5751 5751 5750 5749 5747
5736 5724 5732 5737 5734 5727 5718 5705 5696 5692 5694 5681 5668 5663 5665 5666 5664 5663 5663 5664 5667 5671 5675 5679 5683 5686 5689 5692 5696 5700 5704 5709 5714 5719 5725 5730 5735 5740 5743 5746 5746 5746 5745 5744
5721 5721 5732 5726 5716 5712 5706 5698 5692 5684 5678 5673 5664 5654 5651 5653 5655 5656 5655 5655 5656 5659 5661 5665 5670 5672 5676 5680 5683 5688 5693 5698 5704 5710 5715 5721 5727 5731 5734 5736 5738 5740 5740 5739
5717 5720 5720 5712 5705 5702 5693 5699 5693 5683 5665 5650 5652 5638 5637 5639 5640 5644 5644 5644 5646 5648 5650 5653 5656 5659 5663 5667 5673 5678 5682 5688 5693 5699 5704 5708 5714 5718 5722 5726 5730 5732 5733 5733
5710 5713 5708 5702 5700 5699 5693 5692 5685 5675 5657 5640 5635 5628 5623 5628 5628 5630 5633 5636 5637 5639 5641 5643 5645 5648 5652 5658 5662 5667 5672 5677 5683 5688 5693 5698 5703 5708 5713 5717 5720 5722 5724 5725
5709 5713 5707 5701 5701 5697 5690 5683 5672 5657 5644 5625 5622 5618 5612 5616 5618 5621 5625 5628 5629 5631 5633 5635 5638 5641 5645 5650 5654 5658 5662 5667 5672 5678 5683 5688 5693 5698 5702 5706 5710 5713 5714 5716
5695 5697 5700 5700 5690 5687 5676 5663 5645 5638 5621 5616 5621 5614 5609 5617 5619 5618 5619 5621 5623 5625 5625 5628 5631 5634 5638 5642 5646 5650 5653 5658 5663 5668 5673 5679 5683 5687 5692 5696 5700 5703 5705 5706
5684 5674 5688 5689 5682 5675 5665 5655 5637 5628 5616 5611 5614 5608 5610 5620 5620 5620 5618 5619 5620 5621 5621 5623 5626 5628 5632 5635 5639 5642 5646 5649 5655 5660 5665 5670 5674 5678 5682 5687 5691 5693 5695 5697
5678 5675 5690 5688 5683 5678 5664 5646 5643 5624 5616 5607 5606 5609 5614 5620 5618 5618 5617 5617 5616 5617 5618 5620 5623 5625 5627 5630 5633 5635 5639 5643 5647 5652 5657 5661 5665 5669 5674 5678 5681 5684 5686 5689
5688 5675 5679 5682 5681 5670 5660 5648 5633 5622 5610 5603 5605 5602 5600 5610 5612 5613 5614 5614 5614 5616 5617 5619 5620 5622 5624 5626 5628 5632 5634 5637 5641 5645 5649 5653 5656 5661 5665 5669 5672 5674 5677 5679
5692 5673 5669 5670 5662 5655 5654 5645 5627 5614 5610 5601 5598 5599 5613 5611 5612 5611 5612 5613 5614 5615 5616 5617 5618 5620 5622 5625 5626 5629 5631 5633 5636 5640 5643 5646 5649 5653 5656 5660 5663 5665 5668 5671
5686 5668 5657 5664 5668 5667 5658 5646 5632 5620 5607 5601 5596 5599 5622 5618 5616 5614 5613 5615 5616 5617 5618 5618 5619 5619 5621 5622 5624 5626 5628 5630 5632 5635 5638 5640 5643 5646 5649 5652 5654 5657 5659 5662
5688 5669 5653 5653 5655 5659 5654 5646 5635 5623 5610 5602 5599 5606 5626 5622 5621 5620 5618 5618 5618 5619 5620 5620 5620 5620 5621 5621 5622 5624 5625 5627 5630 5632 5634 5636 5638 5640 5642 5645 5647 5650 5652 5654
5692 5668 5660 5655 5652 5654 5652 5647 5640 5630 5614 5610 5610 5614 5623 5625 5623 5623 5622 5621 5621 5622 5622 5622 5620 5621 5621 5621 5621 5622 5624 5626 5628 5629 5630 5631 5633 5634 5637 5639 5642 5644 5645 5647
5692 5670 5668 5665 5666 5661 5656 5651 5645 5638 5628 5619 5623 5622 5627 5629 5628 5627 5627 5626 5626 5625 5625 5624 5622 5622 5622 5622 5622 5623 5623 5624 5625 5627 5627 5628 5630 5631 5633 5634 5636 5637 5639 5640
5688 5675 5671 5666 5667 5664 5658 5655 5651 5646 5639 5634 5632 5630 5638 5637 5635 5633 5631 5630 5628 5627 5628 5627 5627 5626 5625 5624 5624 5624 5624 5624 5625 5625 5625 5626 5627 5628 5629 5630 5631 5632 5633 5634
5682 5676 5663 5657 5663 5661 5653 5659 5655 5653 5650 5644 5636 5639 5645 5642 5640 5639 5637 5635 5633 5632 5632 5631 5630 5629 5628 5627 5627 5625 5625 5625 5625 5624 5624 5624 5624 5625 5625 5627 5627 5628 5628 5628
5685 5671 5657 5655 5659 5654 5665 5674 5669 5662 5659 5655 5653 5652 5650 5648 5648 5647 5645 5642 5639 5638 5638 5636 5635 5634 5634 5632 5631 5629 5628 5626 5625 5624 5623 5623 5623 5622 5623 5623 5623 5623 5623 5623
5690 5677 5660 5652 5654 5659 5673 5678 5672 5664 5662 5666 5660 5659 5656 5655 5650 5648 5652 5650 5647 5646 5644 5642 5641 5640 5639 5637 5635 5633 5630 5628 5627 5625 5623 5622 5621 5620 5620 5619 5619 5619 5619 5618
5687 5680 5665 5657 5663 5663 5680 5688 5685 5675 5664 5676 5670 5664 5659 5654 5642 5645 5657 5656 5655 5653 5650 5649 5647 5646 5644 5642 5639 5636 5633 5630 5628 5626 5624 5622 5621 5619 5618 5617 5616 5615 5615 5614
5687 5677 5669 5662 5663 5670 5690 5692 5687 5662 5670 5685 5679 5673 5665 5658 5656 5659 5662 5661 5660 5658 5656 5654 5652 5649 5648 5646 5643 5639 5636 5633 5630 5628 5625 5623 5621 5619 5617 5616 5614 5613 5612 5611
5686 5677 5670 5663 5666 5676 5699 5692 5685 5686 5694 5691 5685 5680 5673 5670 5669 5667 5667 5665 5663 5660 5659 5657 5654 5653 5652 5650 5647 5643 5640 5637 5633 5630 5626 5623 5620 5619 5617 5615 5613 5611 5609 5608
5693 5695 5688 5686 5695 5708 5706 5708 5709 5704 5698 5695 5690 5686 5681 5676 5674 5672 5670 5668 5666 5664 5661 5659 5657 5656 5655 5654 5651 5647 5645 5641 5637 5632 5628 5624 5621 5618 5615 5613 5611 5609 5607 5605
5703 5702 5697 5695 5706 5712 5712 5712 5713 5708 5705 5702 5697 5692 5686 5681 5678 5676 5672 5669 5667 5666 5664 5662 5660 5658 5657 5656 5655 5652 5649 5645 5640 5635 5630 5626 5622 5618 5615 5613 5610 5608 5605 5603
5715 5703 5702 5704 5713 5717 5720 5717 5716 5712 5709 5704 5700 5696 5691 5686 5682 5678 5674 5671 5669 5668 5666 5664 5661 5660 5659 5659 5658 5655 5652 5648 5643 5638 5633 5629 5624 5620 5617 5613 5610 5608 5605 5602
5715 5714 5711 5715 5725 5721 5725 5727 5722 5715 5711 5707 5702 5697 5693 5689 5685 5681 5676 5674 5671 5669 5667 5665 5664 5662 5662 5661 5660 5658 5655 5651 5646 5641 5637 5632 5627 5623 5619 5615 5612 5610 5608 5606